GW1174 Weather Reports


Display with metric or nautical units.
time (UTC)temp
F
wind
direction
speed
MPH
gust
MPH
rain 1hr
in
rain 24hr
in
rain mn
in
humidity
%
barometer
mb
20260901052517 64 290 2.0 2.0 0.00 0.20 0.20 68 1106.1
20260901052016 57 0.0 3.0 0.00 0.02 0.01 91 1020.5
20260901051518 65 287 2.0 2.0 0.00 0.20 0.20 68 1105.5
20260901051016 56 0.0 3.0 0.00 0.02 0.01 91 1020.7
20260901050517 65 284 2.0 3.0 0.00 0.20 0.20 67 1104.9
20260901050016 56 270 1.0 4.0 0.00 0.02 0.01 91 1020.5
20260901045517 66 280 2.0 3.0 0.00 0.20 0.20 67 1104.2
20260901045038 56 225 3.0 5.0 0.00 0.02 0.01 91 1020.5
20260901044517 66 277 2.0 3.0 0.00 0.20 0.20 66 1103.6
20260901044016 57 225 4.0 8.0 0.00 0.02 0.01 91 1020.5
20260901043537 67 274 2.0 3.0 0.00 0.20 0.20 66 1102.9
20260901043016 57 203 5.0 10.0 0.00 0.02 0.01 91 1020.4
20260901042557 67 270 2.0 3.0 0.00 0.20 0.20 65 1102.3
20260901042017 57 203 4.0 7.0 0.00 0.02 0.01 91 1020.4
20260901041517 68 267 3.0 3.0 0.00 0.20 0.20 64 1101.6
20260901041016 57 225 3.0 5.0 0.00 0.02 0.01 91 1020.4
20260901040517 68 263 3.0 3.0 0.00 0.20 0.20 64 1100.9
20260901040016 57 203 3.0 5.0 0.00 0.04 0.01 91 1020.4
20260901035517 68 260 3.0 3.0 0.00 0.20 0.20 63 1100.2
20260901035016 57 225 3.0 6.0 0.00 0.07 0.01 91 1020.4
20260901034517 69 256 3.0 3.0 0.00 0.20 0.20 63 1099.5
20260901034016 57 203 3.0 5.0 0.00 0.08 0.01 91 1020.3
20260901033517 69 253 3.0 4.0 0.00 0.20 0.20 62 1098.8
20260901033016 57 180 3.0 7.0 0.00 0.24 0.01 91 1020.3
20260901032517 69 249 3.0 4.0 0.00 0.20 0.20 62 1098.1
20260901032056 57 203 3.0 5.0 0.00 0.24 0.01 91 1020.2
20260901031517 70 246 3.0 4.0 0.00 0.20 0.20 61 1097.4
20260901031016 57 203 2.0 4.0 0.00 0.24 0.01 91 1020.2
20260901030517 70 242 3.0 4.0 0.00 0.20 0.20 60 1096.6
20260901030016 57 158 2.0 5.0 0.00 0.24 0.01 91 1020.2
20260901025557 70 238 3.0 4.0 0.00 0.20 0.20 60 1095.9
20260901025016 57 180 3.0 6.0 0.00 0.24 0.01 91 1020.2
20260901024517 70 234 3.0 4.0 0.00 0.20 0.20 59 1095.2
20260901024036 57 180 4.0 8.0 0.00 0.24 0.01 91 1020.1
20260901023517 70 231 4.0 4.0 0.00 0.20 0.20 58 1094.4
20260901023036 57 180 4.0 6.0 0.00 0.24 0.01 91 1020.2
20260901022517 70 227 4.0 4.0 0.00 0.20 0.20 58 1093.7
20260901022016 57 180 3.0 6.0 0.00 0.24 0.01 91 1020.2
20260901021517 70 223 4.0 5.0 0.00 0.20 0.20 57 1092.9
20260901021036 57 158 3.0 6.0 0.00 0.24 0.01 91 1020.1
20260901020517 70 219 4.0 5.0 0.00 0.20 0.20 57 1092.2
20260901020016 57 158 4.0 7.0 0.00 0.24 0.01 91 1020.0
20260901015517 70 215 4.0 5.0 0.00 0.20 0.20 56 1091.4
20260901015018 57 158 3.0 6.0 0.00 0.24 0.01 90 1019.9
20260901014517 70 212 4.0 5.0 0.01 0.20 0.20 55 1090.6
20260901014018 58 158 3.0 6.0 0.00 0.24 0.01 90 1019.7
20260901013517 70 208 4.0 5.0 0.02 0.20 0.20 55 1089.9
20260901013018 57 158 3.0 6.0 0.00 0.24 0.01 90 1019.7
20260901012557 69 204 4.0 5.0 0.03 0.20 0.20 54 1089.1
20260901012037 57 158 3.0 8.0 0.00 0.24 0.01 90 1019.5
20260901011517 69 200 4.0 5.0 0.05 0.20 0.20 53 1088.3
20260901011017 57 180 4.0 6.0 0.00 0.24 0.01 90 1019.6
20260901010517 69 196 5.0 5.0 0.06 0.20 0.20 53 1087.6
20260901010037 57 158 3.0 5.0 0.00 0.24 0.01 90 1019.5
20260901005517 69 192 5.0 6.0 0.07 0.20 0.20 52 1086.8
20260901005018 58 158 2.0 4.0 0.00 0.24 0.01 90 1019.2
20260901004517 68 188 5.0 6.0 0.07 0.20 0.19 51 1086.0
20260901004016 57 158 2.0 4.0 0.00 0.24 0.01 89 1019.1
20260901003517 68 184 5.0 6.0 0.07 0.20 0.18 51 1085.2
20260901003018 57 158 2.0 4.0 0.00 0.24 0.01 89 1019.2
20260901002517 67 180 5.0 6.0 0.07 0.20 0.17 50 1084.5
20260901002018 57 203 1.0 3.0 0.00 0.24 0.01 89 1019.1
20260901001517 67 176 5.0 6.0 0.06 0.20 0.15 49 1083.7
20260901001017 57 225 2.0 5.0 0.00 0.24 0.01 88 1019.1
20260901000517 66 173 5.0 6.0 0.06 0.20 0.14 49 1082.9
20260901000017 57 225 1.0 4.0 0.00 0.24 0.01 88 1019.0
20260831235517 66 169 5.0 6.0 0.06 0.20 0.13 48 1082.1
20260831235017 58 225 1.0 3.0 0.01 0.24 0.01 88 1019.2
20260831234537 65 165 5.0 7.0 0.07 0.20 0.12 47 1081.4
20260831234017 58 225 2.0 4.0 0.01 0.24 0.01 88 1019.1
20260831233517 65 161 6.0 7.0 0.07 0.20 0.11 47 1080.6
20260831233017 58 225 4.0 6.0 0.01 0.24 0.01 88 1019.1
20260831232517 64 157 6.0 7.0 0.07 0.20 0.10 46 1079.8
20260831232017 58 225 2.0 4.0 0.01 0.24 0.01 87 1019.0
20260831231517 64 153 6.0 7.0 0.07 0.20 0.09 45 1079.0
20260831231017 59 225 1.0 3.0 0.01 0.24 0.01 88 1019.1
20260831230517 63 149 6.0 7.0 0.07 0.20 0.08 45 1078.3
20260831230037 59 225 3.0 6.0 0.01 0.24 0.01 87 1019.1
20260831225517 62 145 6.0 7.0 0.07 0.20 0.07 44 1077.5
20260831225017 59 225 5.0 9.0 0.00 0.23 0.00 87 1019.3
20260831224557 62 141 6.0 7.0 0.05 0.20 0.05 44 1076.8
20260831224017 59 248 3.0 6.0 0.01 0.23 0.00 87 1019.4
20260831223517 61 138 6.0 7.0 0.04 0.20 0.04 43 1076.0
20260831223017 59 225 4.0 8.0 0.01 0.23 0.00 86 1019.3
20260831222517 60 134 6.0 8.0 0.03 0.20 0.03 42 1075.2
20260831222017 60 225 4.0 8.0 0.01 0.23 0.00 86 1019.3
20260831221517 59 130 6.0 8.0 0.02 0.20 0.02 42 1074.5
20260831221021 60 203 3.0 7.0 0.01 0.23 0.00 86 1019.2
20260831220517 59 126 6.0 8.0 0.01 0.20 0.01 41 1073.8
20260831220017 60 248 2.0 4.0 0.01 0.23 0.23 85 1019.0
20260831215518 58 122 7.0 8.0 0.00 0.20 0.20 40 1073.0
20260831215036 61 315 2.0 4.0 0.01 0.23 0.23 84 1019.2
20260831214557 57 119 7.0 8.0 0.00 0.20 0.20 40 1072.3
20260831214036 62 293 3.0 5.0 0.00 0.22 0.22 82 1019.2
20260831213517 56 115 7.0 8.0 0.00 0.20 0.20 39 1071.6
20260831213036 62 270 3.0 8.0 0.00 0.22 0.22 80 1019.0
20260831212517 55 111 7.0 8.0 0.00 0.20 0.20 39 1070.8
20260831212016 62 270 3.0 8.0 0.00 0.22 0.22 79 1018.7
20260831211517 54 108 7.0 8.0 0.00 0.20 0.20 38 1070.1
20260831211016 62 225 5.0 11.0 0.00 0.22 0.22 79 1018.5
20260831210517 54 104 7.0 9.0 0.00 0.20 0.20 37 1069.4
20260831210016 62 225 5.0 11.0 0.00 0.22 0.22 78 1018.6
20260831205517 53 101 7.0 9.0 0.00 0.20 0.20 37 1068.7
20260831205016 62 270 2.0 6.0 0.00 0.22 0.22 76 1018.4
20260831204517 52 97 7.0 9.0 0.00 0.20 0.20 36 1068.0
20260831204016 62 248 5.0 9.0 0.00 0.22 0.22 75 1018.2
20260831203517 51 94 7.0 9.0 0.00 0.20 0.20 36 1067.3
20260831203016 63 248 4.0 9.0 0.00 0.22 0.22 75 1018.3
20260831202517 50 90 7.0 9.0 0.00 0.20 0.20 35 1066.6
20260831202016 63 225 6.0 12.0 0.00 0.22 0.22 74 1018.1
20260831201538 49 87 8.0 9.0 0.00 0.20 0.20 34 1066.0
20260831201016 63 225 5.0 9.0 0.00 0.22 0.22 74 1017.9
20260831200517 48 84 8.0 9.0 0.00 0.20 0.20 34 1065.3
20260831200016 63 270 6.0 12.0 0.00 0.22 0.22 73 1017.5
20260831195537 47 80 8.0 9.0 0.00 0.20 0.20 33 1064.7
20260831195016 63 225 7.0 13.0 0.00 0.22 0.22 72 1017.4
20260831194537 47 77 8.0 9.0 0.00 0.20 0.20 33 1064.0
20260831194016 64 225 10.0 17.0 0.00 0.22 0.22 71 1017.3
20260831193517 46 74 8.0 10.0 0.00 0.20 0.20 32 1063.4
20260831193016 64 225 9.0 17.0 0.00 0.22 0.22 68 1017.0
20260831192518 45 71 8.0 10.0 0.00 0.20 0.20 32 1062.8
20260831192016 65 225 7.0 12.0 0.00 0.22 0.22 65 1017.0
20260831191517 44 68 8.0 10.0 0.00 0.20 0.20 31 1062.2
20260831191017 65 225 8.0 20.0 0.00 0.22 0.22 64 1017.1
20260831190517 43 65 8.0 10.0 0.00 0.20 0.20 31 1061.6
20260831190017 66 248 8.0 16.0 0.00 0.22 0.22 62 1017.1
20260831185517 42 62 8.0 10.0 0.00 0.20 0.20 30 1061.0
20260831185017 67 225 11.0 19.0 0.00 0.22 0.22 61 1016.9
20260831184517 42 59 8.0 10.0 0.00 0.20 0.20 30 1060.4
20260831184017 68 248 10.0 16.0 0.00 0.22 0.22 60 1016.9
20260831183517 41 56 8.0 10.0 0.00 0.20 0.20 29 1059.8
20260831183017 68 225 9.0 18.0 0.00 0.22 0.22 59 1016.4
20260831182557 40 53 9.0 10.0 0.00 0.20 0.20 29 1059.3
20260831182017 68 225 7.0 15.0 0.00 0.22 0.22 59 1016.1
20260831181517 39 50 9.0 10.0 0.00 0.20 0.20 28 1058.7
20260831181036 68 225 8.0 17.0 0.00 0.22 0.22 58 1015.9
20260831180518 39 48 9.0 10.0 0.00 0.20 0.20 28 1058.2
20260831180037 69 225 8.0 17.0 0.00 0.22 0.22 57 1015.8
20260831175517 38 45 9.0 11.0 0.00 0.20 0.20 27 1057.7
20260831175018 69 225 9.0 14.0 0.00 0.22 0.22 57 1015.9
20260831174517 37 42 9.0 11.0 0.00 0.20 0.20 27 1057.2
20260831174017 69 270 7.0 14.0 0.00 0.22 0.22 57 1016.0
20260831173517 37 40 9.0 11.0 0.00 0.20 0.20 27 1056.7
20260831173016 69 225 8.0 15.0 0.00 0.22 0.22 57 1016.0
20260831172517 36 37 9.0 11.0 0.00 0.20 0.20 26 1056.2
20260831172016 69 225 6.0 12.0 0.00 0.22 0.22 57 1015.8
20260831171517 35 35 9.0 11.0 0.00 0.20 0.20 26 1055.7
20260831171016 70 225 7.0 13.0 0.00 0.22 0.22 56 1015.7
20260831170517 35 33 9.0 11.0 0.00 0.20 0.20 25 1055.3
20260831170037 70 225 6.0 14.0 0.00 0.22 0.22 56 1015.7
20260831165517 34 31 9.0 11.0 0.00 0.20 0.20 25 1054.8
20260831165016 70 270 7.0 11.0 0.00 0.22 0.22 57 1016.0
20260831164517 34 28 9.0 11.0 0.00 0.20 0.20 25 1054.4
20260831164017 72 248 8.0 16.0 0.00 0.22 0.22 55 1016.0
20260831163517 33 26 9.0 11.0 0.00 0.20 0.20 24 1054.0
20260831163017 72 225 5.0 9.0 0.00 0.22 0.22 56 1016.0
20260831162517 33 24 9.0 11.0 0.00 0.20 0.20 24 1053.6
20260831162017 73 248 5.0 9.0 0.00 0.22 0.22 56 1015.8
20260831161517 32 22 9.0 11.0 0.00 0.20 0.20 24 1053.2
20260831161016 72 203 7.0 13.0 0.00 0.22 0.22 56 1015.8
20260831160517 32 21 9.0 11.0 0.00 0.20 0.20 23 1052.8
20260831160016 72 225 7.0 13.0 0.00 0.22 0.22 55 1015.7
20260831155517 32 19 9.0 11.0 0.00 0.20 0.20 23 1052.5
20260831155016 73 248 6.0 12.0 0.00 0.22 0.22 55 1015.7
20260831154537 31 17 10.0 11.0 0.00 0.20 0.20 23 1052.1
20260831154117 73 225 9.0 18.0 0.00 0.22 0.22 53 1015.7
20260831153517 31 15 10.0 12.0 0.00 0.20 0.20 23 1051.8
20260831153017 73 270 8.0 13.0 0.00 0.22 0.22 54 1015.5
20260831152516 31 14 10.0 12.0 0.00 0.20 0.20 22 1051.5
20260831152018 74 225 9.0 19.0 0.00 0.22 0.22 52 1015.6
20260831151517 30 12 10.0 12.0 0.00 0.20 0.20 22 1051.2
20260831151016 74 225 8.0 15.0 0.00 0.22 0.22 51 1015.6
20260831150517 30 11 10.0 12.0 0.00 0.20 0.20 22 1051.0
20260831150016 74 203 8.0 20.0 0.00 0.22 0.22 52 1015.5
20260831145517 30 10 10.0 12.0 0.00 0.20 0.20 22 1050.7
20260831145016 73 225 11.0 21.0 0.00 0.22 0.22 52 1015.5
20260831144517 30 8 10.0 12.0 0.00 0.20 0.20 21 1050.4
20260831144016 74 270 9.0 14.0 0.00 0.22 0.22 54 1015.5
20260831143517 30 7 10.0 12.0 0.00 0.20 0.20 21 1050.2
20260831143016 75 225 9.0 14.0 0.00 0.22 0.22 54 1015.6
20260831142517 30 6 10.0 12.0 0.00 0.20 0.20 21 1050.0
20260831142016 75 225 7.0 12.0 0.00 0.22 0.22 56 1015.7
20260831141537 30 5 10.0 12.0 0.00 0.20 0.20 21 1049.8
20260831141036 74 248 9.0 15.0 0.00 0.22 0.22 56 1015.8
20260831140517 30 4 10.0 12.0 0.00 0.20 0.20 21 1049.6
20260831140016 73 225 7.0 11.0 0.00 0.22 0.22 59 1015.8
20260831135517 30 4 10.0 12.0 0.00 0.20 0.20 21 1049.5
20260831135016 75 203 6.0 12.0 0.00 0.22 0.22 57 1015.7
20260831134537 30 3 10.0 12.0 0.00 0.20 0.20 20 1049.3
20260831134016 74 203 8.0 14.0 0.00 0.22 0.22 58 1015.8
20260831133517 30 2 10.0 12.0 0.00 0.20 0.20 20 1049.2
20260831133016 73 225 7.0 15.0 0.00 0.22 0.22 59 1015.7
20260831132517 31 2 10.0 12.0 0.00 0.20 0.20 20 1049.1
20260831132016 72 225 7.0 16.0 0.00 0.22 0.22 58 1015.7
20260831131517 31 1 10.0 12.0 0.00 0.20 0.20 20 1049.0
20260831131036 73 203 6.0 12.0 0.00 0.22 0.22 59 1015.9
20260831130517 31 1 10.0 12.0 0.00 0.20 0.20 20 1048.9
20260831130016 71 270 5.0 11.0 0.00 0.22 0.22 60 1015.8
20260831125517 31 0 10.0 12.0 0.00 0.20 0.20 20 1048.9
20260831125016 70 225 8.0 13.0 0.00 0.22 0.22 62 1015.8
20260831124517 32 0 10.0 12.0 0.00 0.20 0.20 20 1048.8
20260831124016 71 248 8.0 13.0 0.00 0.22 0.22 61 1015.9
20260831123517 32 0 10.0 12.0 0.00 0.20 0.20 20 1048.8
20260831123016 71 225 6.0 13.0 0.00 0.22 0.22 61 1015.8
20260831122517 33 0 10.0 12.0 0.00 0.20 0.20 20 1048.8
20260831122016 71 248 7.0 11.0 0.00 0.22 0.22 60 1015.8
20260831121517 33 0 10.0 12.0 0.00 0.20 0.20 20 1048.8
20260831121016 71 203 8.0 15.0 0.00 0.22 0.22 62 1015.8
20260831120517 34 0 10.0 12.0 0.00 0.20 0.20 20 1048.8
20260831120016 72 225 10.0 18.0 0.00 0.22 0.22 61 1015.9
20260831115557 34 0 10.0 12.0 0.00 0.20 0.20 20 1048.9
20260831115036 72 248 8.0 14.0 0.00 0.22 0.22 60 1015.9
20260831114516 35 1 10.0 12.0 0.00 0.20 0.20 20 1048.9
20260831114056 71 225 9.0 14.0 0.00 0.22 0.22 60 1015.8
20260831113517 35 1 10.0 12.0 0.00 0.20 0.20 20 1049.0
20260831113016 71 248 8.0 14.0 0.00 0.22 0.22 64 1015.8
20260831112517 36 1 10.0 12.0 0.00 0.20 0.20 20 1049.1
20260831112036 72 225 9.0 15.0 0.00 0.22 0.22 62 1016.1
20260831111517 36 2 10.0 12.0 0.00 0.20 0.20 20 1049.2
20260831111015 71 225 10.0 18.0 0.00 0.22 0.22 63 1015.8
20260831110517 37 3 10.0 12.0 0.00 0.20 0.20 20 1049.3
20260831110016 71 225 9.0 15.0 0.00 0.22 0.22 63 1015.8
20260831105517 38 3 10.0 12.0 0.00 0.20 0.20 21 1049.4
20260831105016 71 225 11.0 18.0 0.00 0.22 0.22 62 1015.8
20260831104517 38 4 10.0 12.0 0.00 0.20 0.20 21 1049.6
20260831104016 71 225 8.0 14.0 0.00 0.22 0.22 67 1015.8
20260831103517 39 5 10.0 12.0 0.00 0.20 0.20 21 1049.8
20260831103018 70 270 7.0 16.0 0.00 0.22 0.22 68 1015.8
20260831102517 40 6 10.0 12.0 0.00 0.20 0.20 21 1050.0
20260831102017 69 225 10.0 20.0 0.00 0.22 0.22 70 1015.8
20260831101517 41 7 10.0 12.0 0.00 0.20 0.20 21 1050.2
20260831101018 69 248 6.0 19.0 0.00 0.22 0.22 70 1015.9
20260831100537 41 8 10.0 12.0 0.00 0.20 0.20 21 1050.4
20260831100018 69 270 8.0 16.0 0.00 0.22 0.22 72 1015.8
20260831095517 42 9 10.0 12.0 0.00 0.20 0.20 22 1050.6
20260831095038 68 270 9.0 17.0 0.00 0.22 0.22 72 1016.0
20260831094537 43 11 10.0 12.0 0.00 0.20 0.20 22 1050.9
20260831094017 68 225 9.0 19.0 0.00 0.22 0.22 75 1016.0
20260831093517 44 12 10.0 12.0 0.00 0.20 0.20 22 1051.2
20260831093037 67 270 6.0 14.0 0.00 0.22 0.22 78 1015.9
20260831092517 45 14 10.0 12.0 0.00 0.20 0.20 22 1051.5
20260831092018 67 270 7.0 15.0 0.00 0.22 0.22 76 1015.9
20260831091517 46 15 10.0 12.0 0.00 0.20 0.20 23 1051.8
20260831091036 68 293 6.0 12.0 0.00 0.22 0.22 79 1016.0
20260831090517 46 17 10.0 11.0 0.00 0.20 0.20 23 1052.1
20260831090038 67 248 8.0 15.0 0.00 0.22 0.22 82 1015.9
20260831085517 47 18 9.0 11.0 0.00 0.20 0.20 23 1052.4
20260831085017 66 270 7.0 13.0 0.00 0.22 0.22 86 1015.7
20260831084517 48 20 9.0 11.0 0.00 0.20 0.20 23 1052.8
20260831084038 65 270 11.0 18.0 0.00 0.22 0.22 88 1015.8
20260831083517 49 22 9.0 11.0 0.00 0.20 0.20 24 1053.1
20260831083038 64 248 8.0 17.0 0.00 0.22 0.22 91 1015.7
20260831082517 50 24 9.0 11.0 0.00 0.20 0.20 24 1053.5
20260831082037 64 270 6.0 16.0 0.00 0.22 0.22 92 1015.6
20260831081517 51 26 9.0 11.0 0.00 0.20 0.20 24 1053.9
20260831081017 63 248 7.0 13.0 0.00 0.22 0.22 93 1015.5
20260831080517 52 28 9.0 11.0 0.00 0.20 0.20 25 1054.3
20260831080018 62 248 6.0 13.0 0.00 0.22 0.22 94 1015.4
20260831075517 53 30 9.0 11.0 0.00 0.20 0.20 25 1054.7
20260831075017 61 248 7.0 16.0 0.00 0.22 0.22 94 1015.3
20260831074517 53 32 9.0 11.0 0.00 0.20 0.20 25 1055.2
20260831074018 61 270 8.0 17.0 0.00 0.22 0.22 94 1015.4
20260831073517 54 35 9.0 11.0 0.00 0.20 0.20 26 1055.6
20260831073018 61 270 6.0 14.0 0.00 0.22 0.22 94 1015.2
20260831072516 55 37 9.0 11.0 0.00 0.20 0.20 26 1056.1
20260831072017 61 248 9.0 15.0 0.00 0.22 0.22 94 1015.1
20260831071517 56 39 9.0 11.0 0.00 0.20 0.20 27 1056.6
20260831071017 61 225 7.0 14.0 0.00 0.22 0.22 94 1015.0
20260831070517 57 42 9.0 11.0 0.00 0.20 0.20 27 1057.1
20260831070017 61 225 6.0 12.0 0.00 0.22 0.22 94 1014.9
20260831065517 58 44 9.0 11.0 0.00 0.20 0.20 27 1057.6
20260831065017 61 225 6.0 11.0 0.00 0.22 0.22 94 1015.0
20260831064517 58 47 9.0 10.0 0.00 0.20 0.20 28 1058.1
20260831064017 61 225 5.0 9.0 0.00 0.22 0.22 94 1014.9
20260831063517 59 50 9.0 10.0 0.00 0.20 0.20 28 1058.6
20260831063017 60 203 4.0 9.0 0.00 0.22 0.22 94 1014.8
20260831062517 60 52 9.0 10.0 0.00 0.20 0.20 29 1059.2
20260831062037 60 203 5.0 8.0 0.00 0.22 0.22 94 1014.8
20260831061517 61 55 8.0 10.0 0.00 0.20 0.20 29 1059.7
20260831061017 60 180 3.0 5.0 0.00 0.22 0.22 94 1014.8
20260831060517 61 58 8.0 10.0 0.00 0.20 0.20 30 1060.3
20260831060017 59 158 3.0 5.0 0.00 0.22 0.22 94 1014.6
20260831055517 62 61 8.0 10.0 0.00 0.20 0.20 30 1060.9
20260831055017 59 158 4.0 7.0 0.00 0.22 0.22 94 1014.5
20260831054517 63 64 8.0 10.0 0.00 0.20 0.20 31 1061.4
20260831054017 59 113 2.0 3.0 0.00 0.22 0.22 94 1014.4
20260831053517 63 67 8.0 10.0 0.00 0.20 0.20 31 1062.0
20260831053037 59 158 2.0 4.0 0.01 0.22 0.22 94 1014.6